,,Stat5,,Stat1,,Stat2,,Stat3,,Stat4,,Wind1,,Wind1,
time,status,PA1M_AVG,status,PR1M_SUM,status,RH1M_AVG,status,SR1M_AVG,status,TA1M_AVG,status,W1dAve1m,status,W1sAve1m,
2001-02-06, 00:00:00,VALID,916.615,VALID,0,VALID,98.7935,VALID,-0.101885,VALID,18.7818,VALID,100,VALID,0,
2001-02-06, 00:01:00,VALID,916.61,VALID,0,VALID,98.8177,VALID,-0.0849042,VALID,18.791,VALID,100,VALID,0,
2001-02-06, 00:02:00,VALID,916.608,VALID,0,VALID,98.7643,VALID,-0.0509425,VALID,18.7786,VALID,117,VALID,0.349724,
2001-02-06, 00:03:00,VALID,916.594,VALID,0,VALID,98.7172,VALID,-0.0679233,VALID,18.7465,VALID,120,VALID,0.651042,
2001-02-06, 00:04:00,VALID,916.589,VALID,0,VALID,98.7045,VALID,-0.0679233,VALID,18.6976,VALID,120,VALID,0.685113,
2001-02-06, 00:05:00,VALID,916.584,VALID,0,VALID,98.7248,VALID,-0.0679233,VALID,18.6844,VALID,121,VALID,0.690625,
2001-02-06, 00:06:00,VALID,916.585,VALID,0,VALID,98.7528,VALID,-0.0339617,VALID,18.6817,VALID,123,VALID,0.527995,
2001-02-06, 00:07:00,VALID,916.57,VALID,0,VALID,98.7541,VALID,-0.0849042,VALID,18.6653,VALID,124,VALID,0.531901,
2001-02-06, 00:08:00,VALID,916.569,VALID,0,VALID,98.7604,VALID,-0.0679233,VALID,18.6524,VALID,125,VALID,0.432366,
2001-02-06, 00:09:00,VALID,916.57,VALID,0,VALID,98.7744,VALID,-0.0849042,VALID,18.6526,VALID,127,VALID,0.46658,
2001-02-06, 00:10:00,VALID,916.565,VALID,0,VALID,98.7706,VALID,-0.0339617,VALID,18.6293,VALID,129,VALID,0.513238,
2001-02-06, 00:11:00,VALID,916.561,VALID,0,VALID,98.7515,VALID,-0.0679233,VALID,18.6166,VALID,130,VALID,0.485064,
2001-02-06, 00:12:00,VALID,916.551,VALID,0,VALID,98.7388,VALID,-0.0509425,VALID,18.6141,VALID,131,VALID,0.550347,
2001-02-06, 00:13:00,VALID,916.543,VALID,0,VALID,98.7528,VALID,-0.0849042,VALID,18.5945,VALID,131,VALID,0.491964,
2001-02-06, 00:14:00,VALID,916.552,VALID,0,VALID,98.763,VALID,-0.0509425,VALID,18.5813,VALID,131,VALID,0.487592,
2001-02-06, 00:15:00,VALID,916.546,VALID,0,VALID,98.7973,VALID,-0.0339617,VALID,18.5779,VALID,131,VALID,0.450452,
2001-02-06, 00:16:00,VALID,916.544,VALID,0,VALID,98.8278,VALID,0,VALID,18.5913,VALID,131,VALID,0.430532,
2001-02-06, 00:17:00,VALID,916.547,VALID,0,VALID,98.8329,VALID,-0.0509425,VALID,18.5977,VALID,131,VALID,0.570313,
2001-02-06, 00:18:00,VALID,916.535,VALID,0,VALID,98.8418,VALID,-0.0509425,VALID,18.591,VALID,131,VALID,0.491319,
2001-02-06, 00:19:00,VALID,916.529,VALID,0,VALID,98.8558,VALID,-0.0509425,VALID,18.597,VALID,131,VALID,0.440972,
2001-02-06, 00:20:00,VALID,916.511,VALID,0,VALID,98.8367,VALID,-0.101885,VALID,18.5977,VALID,137,VALID,0.525331,
2001-02-06, 00:21:00,VALID,916.5,VALID,0,VALID,98.796,VALID,-0.0849042,VALID,18.5843,VALID,141,VALID,0.567845,
2001-02-06, 00:22:00,VALID,916.483,VALID,0,VALID,98.7592,VALID,-0.0679233,VALID,18.5684,VALID,151,VALID,0.512054,
2001-02-06, 00:23:00,VALID,916.476,VALID,0,VALID,98.7439,VALID,-0.0679233,VALID,18.562,VALID,160,VALID,0.487132,
2001-02-06, 00:24:00,VALID,916.474,VALID,0,VALID,98.7426,VALID,-0.0849042,VALID,18.5691,VALID,174,VALID,0.460515,
2001-02-06, 00:25:00,VALID,916.471,VALID,0,VALID,98.7261,VALID,-0.0339617,VALID,18.5656,VALID,177,VALID,0.436022,
2001-02-06, 00:26:00,VALID,916.463,VALID,0,VALID,98.7197,VALID,-0.0509425,VALID,18.5721,VALID,177,VALID,0.435303,
2001-02-06, 00:27:00,VALID,916.44,VALID,0,VALID,98.707,VALID,-0.101885,VALID,18.5686,VALID,177,VALID,0.374566,
2001-02-06, 00:28:00,VALID,916.445,VALID,0,VALID,98.7007,VALID,-0.0509425,VALID,18.5721,VALID,177,VALID,0.336806,
2001-02-06, 00:29:00,VALID,916.428,VALID,0,VALID,98.6905,VALID,-0.0509425,VALID,18.5684,VALID,177,VALID,0.254735,
2001-02-06, 00:30:00,VALID,916.434,VALID,0,VALID,98.6854,VALID,-0.0339617,VALID,18.5813,VALID,177,VALID,0.116776,
2001-02-06, 00:31:00,VALID,916.432,VALID,0,VALID,98.6218,VALID,-0.101885,VALID,18.5682,VALID,177,VALID,0.215625,
2001-02-06, 00:32:00,VALID,916.429,VALID,0,VALID,98.5722,VALID,-0.101885,VALID,18.5488,VALID,177,VALID,0.231618,
2001-02-06, 00:33:00,VALID,916.42,VALID,0,VALID,98.5532,VALID,-0.0849042,VALID,18.546,VALID,177,VALID,0.318201,
2001-02-06, 00:34:00,VALID,916.417,VALID,0,VALID,98.5684,VALID,-0.0509425,VALID,18.5495,VALID,177,VALID,0.258657,
2001-02-06, 00:35:00,VALID,916.396,VALID,0,VALID,98.5506,VALID,-0.0849042,VALID,18.5527,VALID,177,VALID,0.174316,
2001-02-06, 00:36:00,VALID,916.381,VALID,0,VALID,98.5468,VALID,-0.0849042,VALID,18.553,VALID,177,VALID,0.102214,
2001-02-06, 00:37:00,VALID,916.373,VALID,0,VALID,98.5392,VALID,-0.0509425,VALID,18.5627,VALID,177,VALID,0.0199653,
2001-02-06, 00:38:00,VALID,916.359,VALID,0,VALID,98.5277,VALID,0,VALID,18.5555,VALID,177,VALID,0,
2001-02-06, 00:39:00,VALID,916.339,VALID,0,VALID,98.5163,VALID,0.0169808,VALID,18.5356,VALID,177,VALID,0,
2001-02-06, 00:40:00,VALID,916.341,VALID,0,VALID,98.4921,VALID,0,VALID,18.5386,VALID,177,VALID,0,
2001-02-06, 00:41:00,VALID,916.331,VALID,0,VALID,98.4692,VALID,0,VALID,18.5292,VALID,177,VALID,0,
2001-02-06, 00:42:00,VALID,916.322,VALID,0,VALID,98.4807,VALID,0.0169808,VALID,18.5361,VALID,177,VALID,0,
2001-02-06, 00:43:00,VALID,916.311,VALID,0,VALID,98.4629,VALID,0,VALID,18.5331,VALID,177,VALID,0,
2001-02-06, 00:44:00,VALID,916.322,VALID,0,VALID,98.4438,VALID,0,VALID,18.4969,VALID,177,VALID,0,
2001-02-06, 00:45:00,VALID,916.306,VALID,0,VALID,98.3904,VALID,0,VALID,18.4872,VALID,177,VALID,0,
2001-02-06, 00:46:00,VALID,916.3,VALID,0,VALID,98.384,VALID,0,VALID,18.481,VALID,177,VALID,0,
2001-02-06, 00:47:00,VALID,916.299,VALID,0,VALID,98.4324,VALID,0.0169808,VALID,18.4946,VALID,177,VALID,0,
2001-02-06, 00:48:00,VALID,916.275,VALID,0,VALID,98.4743,VALID,0,VALID,18.4944,VALID,177,VALID,0,
2001-02-06, 00:49:00,VALID,916.263,VALID,0,VALID,98.4654,VALID,0.0169808,VALID,18.4911,VALID,177,VALID,0,
2001-02-06, 00:50:00,VALID,916.254,VALID,0,VALID,98.4527,VALID,0.0339617,VALID,18.4708,VALID,177,VALID,0,
2001-02-06, 00:51:00,VALID,916.234,VALID,0,VALID,98.4565,VALID,0,VALID,18.4685,VALID,177,VALID,0,
2001-02-06, 00:52:00,VALID,916.215,VALID,0,VALID,98.4807,VALID,0,VALID,18.4681,VALID,177,VALID,0,
2001-02-06, 00:53:00,VALID,916.19,VALID,0,VALID,98.4921,VALID,0,VALID,18.4651,VALID,177,VALID,0,
2001-02-06, 00:54:00,VALID,916.171,VALID,0,VALID,98.5036,VALID,0.0169808,VALID,18.4581,VALID,177,VALID,0,
2001-02-06, 00:55:00,VALID,916.146,VALID,0,VALID,98.5188,VALID,0.0169808,VALID,18.4782,VALID,177,VALID,0,
2001-02-06, 00:56:00,VALID,916.114,VALID,0,VALID,98.4705,VALID,0,VALID,18.4591,VALID,177,VALID,0,
2001-02-06, 00:57:00,VALID,916.107,VALID,0,VALID,98.4425,VALID,0,VALID,18.4231,VALID,177,VALID,0,
2001-02-06, 00:58:00,VALID,916.096,VALID,0,VALID,98.4654,VALID,0.0169808,VALID,18.4231,VALID,177,VALID,0,
2001-02-06, 00:59:00,VALID,916.069,VALID,0,VALID,98.5048,VALID,0,VALID,18.4166,VALID,146,VALID,0,
2001-02-06, 01:00:00,VALID,916.054,VALID,0,VALID,98.529,VALID,0,VALID,18.43,VALID,79,VALID,0,
2001-02-06, 01:01:00,VALID,916.038,VALID,0,VALID,98.5277,VALID,-0.0169808,VALID,18.4231,VALID,84,VALID,0,
2001-02-06, 01:02:00,VALID,916.016,VALID,0,VALID,98.5303,VALID,-0.0169808,VALID,18.4205,VALID,84,VALID,0,
2001-02-06, 01:03:00,VALID,916.006,VALID,0,VALID,98.543,VALID,0,VALID,18.4169,VALID,86,VALID,0,
2001-02-06, 01:04:00,VALID,915.99,VALID,0,VALID,98.5163,VALID,0.0169808,VALID,18.4009,VALID,82,VALID,0.46658,
2001-02-06, 01:05:00,VALID,915.961,VALID,0,VALID,98.5379,VALID,0,VALID,18.4009,VALID,86,VALID,0.496686,
2001-02-06, 01:06:00,VALID,915.949,VALID,0,VALID,98.5494,VALID,-0.0169808,VALID,18.3975,VALID,90,VALID,0.720395,
2001-02-06, 01:07:00,VALID,915.94,VALID,0,VALID,98.5786,VALID,0.0169808,VALID,18.4072,VALID,91,VALID,0.603125,
2001-02-06, 01:08:00,VALID,915.929,VALID,0,VALID,98.5735,VALID,0,VALID,18.3977,VALID,91,VALID,0.486903,
2001-02-06, 01:09:00,VALID,915.891,VALID,0,VALID,98.5608,VALID,-0.0169808,VALID,18.3786,VALID,73,VALID,0.467061,
2001-02-06, 01:10:00,VALID,915.883,VALID,0,VALID,98.6078,VALID,-0.0169808,VALID,18.385,VALID,79,VALID,0.52027,
2001-02-06, 01:11:00,VALID,915.869,VALID,0,VALID,98.6117,VALID,-0.0169808,VALID,18.3719,VALID,83,VALID,0.797607,
2001-02-06, 01:12:00,VALID,915.851,VALID,0,VALID,98.6307,VALID,0,VALID,18.3848,VALID,88,VALID,1.02517,
2001-02-06, 01:13:00,VALID,915.839,VALID,0,VALID,98.6155,VALID,0,VALID,18.3686,VALID,90,VALID,1.21419,
2001-02-06, 01:14:00,VALID,915.812,VALID,0,VALID,98.632,VALID,0,VALID,18.3749,VALID,86,VALID,1.22206,
2001-02-06, 01:15:00,VALID,915.798,VALID,0,VALID,98.6524,VALID,0,VALID,18.3746,VALID,84,VALID,1.16817,
2001-02-06, 01:16:00,VALID,915.78,VALID,0,VALID,98.6638,VALID,0,VALID,18.3781,VALID,83,VALID,1.31808,
2001-02-06, 01:17:00,VALID,915.76,VALID,0,VALID,98.6549,VALID,0,VALID,18.3647,VALID,85,VALID,1.17808,
2001-02-06, 01:18:00,VALID,915.742,VALID,0,VALID,98.6524,VALID,0,VALID,18.3714,VALID,80,VALID,1.02133,
2001-02-06, 01:19:00,VALID,915.72,VALID,0,VALID,98.6727,VALID,0,VALID,18.3979,VALID,89,VALID,0.915329,
2001-02-06, 01:20:00,VALID,915.692,VALID,0,VALID,98.6638,VALID,0,VALID,18.4005,VALID,95,VALID,1.12402,
2001-02-06, 01:21:00,VALID,915.664,VALID,0,VALID,98.6269,VALID,0,VALID,18.3942,VALID,85,VALID,1.2309,
2001-02-06, 01:22:00,VALID,915.657,VALID,0,VALID,98.6358,VALID,0,VALID,18.4171,VALID,89,VALID,0.966363,
2001-02-06, 01:23:00,VALID,915.633,VALID,0,VALID,98.6193,VALID,0,VALID,18.4099,VALID,87,VALID,0.934659,
2001-02-06, 01:24:00,VALID,915.606,VALID,0,VALID,98.6066,VALID,0,VALID,18.4233,VALID,86,VALID,0.95477,
2001-02-06, 01:25:00,VALID,915.578,VALID,0,VALID,98.6053,VALID,0,VALID,18.4268,VALID,83,VALID,1.02076,
2001-02-06, 01:26:00,VALID,915.558,VALID,0,VALID,98.6091,VALID,-0.0169808,VALID,18.4464,VALID,90,VALID,0.775046,
2001-02-06, 01:27:00,VALID,915.545,VALID,0,VALID,98.5722,VALID,0,VALID,18.4491,VALID,88,VALID,1.10072,
2001-02-06, 01:28:00,VALID,915.521,VALID,0,VALID,98.529,VALID,0,VALID,18.4618,VALID,98,VALID,1.14379,
2001-02-06, 01:29:00,VALID,915.503,VALID,0,VALID,98.4769,VALID,0,VALID,18.4812,VALID,93,VALID,0.667725,
2001-02-06, 01:30:00,VALID,915.505,VALID,0,VALID,98.4031,VALID,0,VALID,18.4946,VALID,64,VALID,0.614583,
2001-02-06, 01:31:00,VALID,915.507,VALID,0,VALID,98.3256,VALID,0,VALID,18.4879,VALID,80,VALID,0.502604,
2001-02-06, 01:32:00,VALID,915.494,VALID,0,VALID,98.262,VALID,0,VALID,18.4842,VALID,88,VALID,0.227273,
2001-02-06, 01:33:00,VALID,915.495,VALID,0,VALID,98.1857,VALID,0.0169808,VALID,18.4946,VALID,72,VALID,0.327919,
2001-02-06, 01:34:00,VALID,915.495,VALID,0,VALID,98.1043,VALID,0,VALID,18.4941,VALID,59,VALID,0.580357,
2001-02-06, 01:35:00,VALID,915.493,VALID,0,VALID,98.0191,VALID,0,VALID,18.5299,VALID,85,VALID,0.316866,
2001-02-06, 01:36:00,VALID,915.497,VALID,0,VALID,97.9568,VALID,0.0339617,VALID,18.552,VALID,87,VALID,0.00929054,
2001-02-06, 01:37:00,VALID,915.483,VALID,0,VALID,97.8767,VALID,-0.0679233,VALID,18.5726,VALID,87,VALID,0,
2001-02-06, 01:38:00,VALID,915.483,VALID,0,VALID,97.7966,VALID,-0.101885,VALID,18.5857,VALID,86,VALID,0.168945,
2001-02-06, 01:39:00,VALID,915.482,VALID,0,VALID,97.7724,VALID,-0.118866,VALID,18.5857,VALID,11,VALID,0.440538,
2001-02-06, 01:40:00,VALID,915.469,VALID,0,VALID,97.7444,VALID,-0.0679233,VALID,18.5922,VALID,324,VALID,0.376736,
2001-02-06, 01:41:00,VALID,915.453,VALID,0,VALID,97.7521,VALID,-0.101885,VALID,18.615,VALID,323,VALID,0.0826231,
2001-02-06, 01:42:00,VALID,915.443,VALID,0,VALID,97.7254,VALID,-0.0679233,VALID,18.6247,VALID,320,VALID,0,
2001-02-06, 01:43:00,VALID,915.423,VALID,0,VALID,97.7635,VALID,-0.0849042,VALID,18.664,VALID,44,VALID,0.13058,
2001-02-06, 01:44:00,VALID,915.421,VALID,0,VALID,97.7012,VALID,-0.0849042,VALID,18.6568,VALID,45,VALID,0.381664,
2001-02-06, 01:45:00,VALID,915.403,VALID,0,VALID,97.616,VALID,-0.101885,VALID,18.6538,VALID,11,VALID,0.149071,
2001-02-06, 01:46:00,VALID,915.389,VALID,0,VALID,97.6516,VALID,-0.101885,VALID,18.6764,VALID,48,VALID,0.300465,
2001-02-06, 01:47:00,VALID,915.368,VALID,0,VALID,97.6427,VALID,-0.101885,VALID,18.6727,VALID,79,VALID,0.19873,
2001-02-06, 01:48:00,VALID,915.361,VALID,0,VALID,97.5969,VALID,-0.101885,VALID,18.6695,VALID,79,VALID,0.00260417,
2001-02-06, 01:49:00,VALID,915.351,VALID,0,VALID,97.6541,VALID,-0.101885,VALID,18.6732,VALID,79,VALID,0,
2001-02-06, 01:50:00,VALID,915.337,VALID,0,VALID,97.6503,VALID,-0.101885,VALID,18.6697,VALID,79,VALID,0,
2001-02-06, 01:51:00,VALID,915.329,VALID,0,VALID,97.6376,VALID,-0.101885,VALID,18.6632,VALID,79,VALID,0,
2001-02-06, 01:52:00,VALID,915.327,VALID,0,VALID,97.6554,VALID,-0.0169808,VALID,18.6526,VALID,79,VALID,0,
2001-02-06, 01:53:00,VALID,915.324,VALID,0,VALID,97.6872,VALID,0.0339617,VALID,18.6651,VALID,77,VALID,0.0078125,
2001-02-06, 01:54:00,VALID,915.318,VALID,0,VALID,97.6592,VALID,0.0169808,VALID,18.6653,VALID,59,VALID,0.298353,
2001-02-06, 01:55:00,VALID,915.305,VALID,0,VALID,97.5842,VALID,0.0339617,VALID,18.6586,VALID,334,VALID,0.423142,
2001-02-06, 01:56:00,VALID,915.298,VALID,0,VALID,97.4927,VALID,0.0169808,VALID,18.6554,VALID,321,VALID,0.431641,
2001-02-06, 01:57:00,VALID,915.286,VALID,0,VALID,97.4087,VALID,0,VALID,18.6554,VALID,319,VALID,0.780382,
2001-02-06, 01:58:00,VALID,915.272,VALID,0,VALID,97.3312,VALID,0,VALID,18.6556,VALID,319,VALID,0.545356,
2001-02-06, 01:59:00,VALID,915.261,VALID,0,VALID,97.3197,VALID,0,VALID,18.6494,VALID,318,VALID,0.202652,
2001-02-06, 02:00:00,VALID,915.236,VALID,0,VALID,97.3617,VALID,0,VALID,18.6233,VALID,318,VALID,0,
2001-02-06, 02:01:00,VALID,915.217,VALID,0,VALID,97.4253,VALID,0,VALID,18.624,VALID,318,VALID,0,
2001-02-06, 02:02:00,VALID,915.2,VALID,0,VALID,97.5041,VALID,0,VALID,18.6104,VALID,318,VALID,0.0137868,
2001-02-06, 02:03:00,VALID,915.178,VALID,0,VALID,97.5893,VALID,0.0169808,VALID,18.6173,VALID,318,VALID,0.014147,
2001-02-06, 02:04:00,VALID,915.167,VALID,0,VALID,97.6274,VALID,0.0169808,VALID,18.6325,VALID,318,VALID,0.118243,
2001-02-06, 02:05:00,VALID,915.138,VALID,0,VALID,97.6478,VALID,0,VALID,18.6489,VALID,318,VALID,0.133789,
2001-02-06, 02:06:00,VALID,915.114,VALID,0,VALID,97.6414,VALID,0.0169808,VALID,18.672,VALID,318,VALID,0.0839844,
2001-02-06, 02:07:00,VALID,915.101,VALID,0,VALID,97.5817,VALID,0.0169808,VALID,18.6655,VALID,318,VALID,0,
2001-02-06, 02:08:00,VALID,915.083,VALID,0,VALID,97.588,VALID,0.0169808,VALID,18.6489,VALID,318,VALID,0,
2001-02-06, 02:09:00,VALID,915.059,VALID,0,VALID,97.6313,VALID,0,VALID,18.6554,VALID,318,VALID,0,
2001-02-06, 02:10:00,VALID,915.041,VALID,0,VALID,97.6134,VALID,-0.0169808,VALID,18.6429,VALID,318,VALID,0,
2001-02-06, 02:11:00,VALID,915.043,VALID,0,VALID,97.5346,VALID,-0.0169808,VALID,18.6233,VALID,318,VALID,0,
2001-02-06, 02:12:00,VALID,915.028,VALID,0,VALID,97.4799,VALID,0,VALID,18.5744,VALID,300,VALID,0,
2001-02-06, 02:13:00,VALID,915.013,VALID,0,VALID,97.5155,VALID,0,VALID,18.5587,VALID,264,VALID,0,
2001-02-06, 02:14:00,VALID,915.02,VALID,0,VALID,97.5969,VALID,0,VALID,18.5396,VALID,264,VALID,0,
2001-02-06, 02:15:00,VALID,915.012,VALID,0,VALID,97.7368,VALID,0,VALID,18.5197,VALID,247,VALID,0,
2001-02-06, 02:16:00,VALID,915.023,VALID,0,VALID,97.7826,VALID,0,VALID,18.5204,VALID,214,VALID,0.282769,
2001-02-06, 02:17:00,VALID,915.022,VALID,0,VALID,97.7546,VALID,0,VALID,18.4844,VALID,187,VALID,0.528172,
2001-02-06, 02:18:00,VALID,915.019,VALID,0,VALID,97.8589,VALID,0,VALID,18.4752,VALID,187,VALID,0.361842,
2001-02-06, 02:19:00,VALID,915.039,VALID,0,VALID,97.9517,VALID,-0.0169808,VALID,18.4586,VALID,187,VALID,0.417634,
2001-02-06, 02:20:00,VALID,915.032,VALID,0,VALID,98.0127,VALID,0,VALID,18.4556,VALID,191,VALID,0.434513,
2001-02-06, 02:21:00,VALID,915.039,VALID,0,VALID,98.042,VALID,0,VALID,18.4459,VALID,231,VALID,0.423986,
2001-02-06, 02:22:00,VALID,915.047,VALID,0,VALID,98.1119,VALID,0.0169808,VALID,18.4524,VALID,229,VALID,0.491343,
2001-02-06, 02:23:00,VALID,915.059,VALID,0,VALID,98.1691,VALID,0.0169808,VALID,18.4519,VALID,220,VALID,0.337402,
2001-02-06, 02:24:00,VALID,915.071,VALID,0,VALID,98.2225,VALID,0.0679233,VALID,18.4487,VALID,220,VALID,0.701172,
2001-02-06, 02:25:00,VALID,915.072,VALID,0,VALID,98.3001,VALID,0.0169808,VALID,18.4455,VALID,218,VALID,0.922092,
2001-02-06, 02:26:00,VALID,915.081,VALID,0,VALID,98.3624,VALID,0.0169808,VALID,18.4452,VALID,223,VALID,0.81108,
2001-02-06, 02:27:00,VALID,915.078,VALID,0,VALID,98.4196,VALID,0.0339617,VALID,18.4321,VALID,228,VALID,0.669408,
2001-02-06, 02:28:00,VALID,915.076,VALID,0,VALID,98.4743,VALID,0,VALID,18.4291,VALID,235,VALID,0.93125,
2001-02-06, 02:29:00,VALID,915.079,VALID,0,VALID,98.5328,VALID,0.0169808,VALID,18.4358,VALID,235,VALID,0.642693,
2001-02-06, 02:30:00,VALID,915.063,VALID,0,VALID,98.5735,VALID,0.0169808,VALID,18.4291,VALID,232,VALID,0.654772,
2001-02-06, 02:31:00,VALID,915.056,VALID,0,VALID,98.6231,VALID,0.0169808,VALID,18.4159,VALID,233,VALID,0.648015,
2001-02-06, 02:32:00,VALID,915.054,VALID,0,VALID,98.6651,VALID,0.0169808,VALID,18.4196,VALID,230,VALID,0.420898,
2001-02-06, 02:33:00,VALID,915.039,VALID,0,VALID,98.7134,VALID,0.0339617,VALID,18.4162,VALID,235,VALID,0.853733,
2001-02-06, 02:34:00,VALID,915.028,VALID,0,VALID,98.7528,VALID,0.0169808,VALID,18.4162,VALID,238,VALID,0.633247,
2001-02-06, 02:35:00,VALID,915.006,VALID,0,VALID,98.7922,VALID,0.0169808,VALID,18.4258,VALID,236,VALID,0.383759,
2001-02-06, 02:36:00,VALID,914.994,VALID,0,VALID,98.8215,VALID,0.0169808,VALID,18.4295,VALID,230,VALID,0.635485,
2001-02-06, 02:37:00,VALID,914.985,VALID,0,VALID,98.8367,VALID,0.0169808,VALID,18.4129,VALID,218,VALID,0.54796,
2001-02-06, 02:38:00,VALID,914.979,VALID,0,VALID,98.8151,VALID,0.0169808,VALID,18.4099,VALID,209,VALID,0.477252,
2001-02-06, 02:39:00,VALID,914.955,VALID,0,VALID,98.8711,VALID,0,VALID,18.4069,VALID,213,VALID,0.413429,
2001-02-06, 02:40:00,VALID,914.928,VALID,0,VALID,98.8952,VALID,0.0169808,VALID,18.4166,VALID,199,VALID,0.271537,
2001-02-06, 02:41:00,VALID,914.899,VALID,0,VALID,98.9118,VALID,0.0339617,VALID,18.4069,VALID,188,VALID,0.528076,
2001-02-06, 02:42:00,VALID,914.881,VALID,0,VALID,98.9245,VALID,0.0169808,VALID,18.4002,VALID,177,VALID,0.511502,
2001-02-06, 02:43:00,VALID,914.859,VALID,0,VALID,98.9359,VALID,0.0339617,VALID,18.3933,VALID,175,VALID,0.8023,
2001-02-06, 02:44:00,VALID,914.842,VALID,0,VALID,98.9448,VALID,0.0169808,VALID,18.397,VALID,175,VALID,0.67732,
2001-02-06, 02:45:00,VALID,914.825,VALID,0,VALID,98.9792,VALID,0.0339617,VALID,18.3876,VALID,198,VALID,0.782689,
2001-02-06, 02:46:00,VALID,914.816,VALID,0,VALID,99.0287,VALID,0,VALID,18.4007,VALID,218,VALID,0.410268,
2001-02-06, 02:47:00,VALID,914.809,VALID,0,VALID,99.0427,VALID,0.0169808,VALID,18.3936,VALID,200,VALID,0.547335,
2001-02-06, 02:48:00,VALID,914.813,VALID,0,VALID,99.0555,VALID,0.0679233,VALID,18.3933,VALID,213,VALID,0.275127,
2001-02-06, 02:49:00,VALID,914.811,VALID,0,VALID,99.0809,VALID,0.0339617,VALID,18.3972,VALID,224,VALID,0.287162,
2001-02-06, 02:50:00,VALID,914.821,VALID,0,VALID,99.0809,VALID,0.0169808,VALID,18.3869,VALID,230,VALID,0.450928,
2001-02-06, 02:51:00,VALID,914.807,VALID,0,VALID,99.1063,VALID,0.0339617,VALID,18.397,VALID,233,VALID,0.627387,
2001-02-06, 02:52:00,VALID,914.818,VALID,0,VALID,99.1279,VALID,0.0169808,VALID,18.3936,VALID,233,VALID,0.685113,
2001-02-06, 02:53:00,VALID,914.811,VALID,0,VALID,99.1457,VALID,0.0339617,VALID,18.4224,VALID,238,VALID,0.538589,
2001-02-06, 02:54:00,VALID,914.806,VALID,0,VALID,99.1648,VALID,0.0509425,VALID,18.4385,VALID,238,VALID,0.476768,
2001-02-06, 02:55:00,VALID,914.802,VALID,0,VALID,99.1737,VALID,0.0679233,VALID,18.4351,VALID,222,VALID,0.348884,
2001-02-06, 02:56:00,VALID,914.787,VALID,0,VALID,99.1661,VALID,0,VALID,18.4388,VALID,218,VALID,0.175322,
2001-02-06, 02:57:00,VALID,914.766,VALID,0,VALID,99.1635,VALID,0.0169808,VALID,18.4353,VALID,218,VALID,0.00443412,
2001-02-06, 02:58:00,VALID,914.761,VALID,0,VALID,99.1419,VALID,0.0849042,VALID,18.4325,VALID,218,VALID,0.342483,
2001-02-06, 02:59:00,VALID,914.748,VALID,0,VALID,99.1496,VALID,0.0509425,VALID,18.4192,VALID,219,VALID,0.109375,
2001-02-06, 03:00:00,VALID,914.74,VALID,0,VALID,99.1559,VALID,0.0169808,VALID,18.4065,VALID,218,VALID,0,
2001-02-06, 03:01:00,VALID,914.726,VALID,0,VALID,99.1737,VALID,0.0339617,VALID,18.4228,VALID,231,VALID,0,
2001-02-06, 03:02:00,VALID,914.713,VALID,0,VALID,99.1737,VALID,0.0339617,VALID,18.4261,VALID,239,VALID,0,
2001-02-06, 03:03:00,VALID,914.697,VALID,0,VALID,99.1572,VALID,0.0849042,VALID,18.4129,VALID,237,VALID,0,
2001-02-06, 03:04:00,VALID,914.695,VALID,0,VALID,99.1623,VALID,0.0339617,VALID,18.3998,VALID,233,VALID,0,
2001-02-06, 03:05:00,VALID,914.673,VALID,0,VALID,99.1585,VALID,0.0339617,VALID,18.3903,VALID,232,VALID,0.25046,
2001-02-06, 03:06:00,VALID,914.661,VALID,0,VALID,99.1724,VALID,0.0169808,VALID,18.3742,VALID,233,VALID,0.736486,
2001-02-06, 03:07:00,VALID,914.632,VALID,0,VALID,99.1686,VALID,-0.0509425,VALID,18.3749,VALID,231,VALID,0.711993,
2001-02-06, 03:08:00,VALID,914.618,VALID,0,VALID,99.1699,VALID,-0.101885,VALID,18.3624,VALID,230,VALID,0.612305,
2001-02-06, 03:09:00,VALID,914.594,VALID,0,VALID,99.1902,VALID,-0.101885,VALID,18.3626,VALID,232,VALID,0.389757,
2001-02-06, 03:10:00,VALID,914.572,VALID,0,VALID,99.1966,VALID,-0.0849042,VALID,18.3629,VALID,230,VALID,0.180556,
2001-02-06, 03:11:00,VALID,914.553,VALID,0,VALID,99.2182,VALID,-0.0679233,VALID,18.3659,VALID,199,VALID,0.214962,
2001-02-06, 03:12:00,VALID,914.526,VALID,0,VALID,99.1826,VALID,-0.101885,VALID,18.3599,VALID,191,VALID,0.453331,
2001-02-06, 03:13:00,VALID,914.491,VALID,0,VALID,99.1902,VALID,-0.0679233,VALID,18.3467,VALID,156,VALID,0.997098,
2001-02-06, 03:14:00,VALID,914.459,VALID,0,VALID,99.1915,VALID,-0.0849042,VALID,18.3333,VALID,146,VALID,0.991039,
2001-02-06, 03:15:00,VALID,914.431,VALID,0,VALID,99.1813,VALID,-0.0679233,VALID,18.3304,VALID,153,VALID,0.907095,
2001-02-06, 03:16:00,VALID,914.435,VALID,0,VALID,99.1763,VALID,-0.0679233,VALID,18.3172,VALID,167,VALID,0.694679,
2001-02-06, 03:17:00,VALID,914.417,VALID,0,VALID,99.1623,VALID,-0.0509425,VALID,18.2916,VALID,163,VALID,0.518799,
2001-02-06, 03:18:00,VALID,914.409,VALID,0,VALID,99.161,VALID,-0.0849042,VALID,18.2688,VALID,182,VALID,0.827908,
2001-02-06, 03:19:00,VALID,914.402,VALID,0,VALID,99.1712,VALID,-0.0849042,VALID,18.2561,VALID,178,VALID,0.918403,
2001-02-06, 03:20:00,VALID,914.402,VALID,0,VALID,99.1661,VALID,-0.0679233,VALID,18.2335,VALID,169,VALID,0.585464,
2001-02-06, 03:21:00,VALID,914.404,VALID,0,VALID,99.1737,VALID,-0.101885,VALID,18.224,VALID,179,VALID,0.85259,
2001-02-06, 03:22:00,VALID,914.38,VALID,0,VALID,99.2004,VALID,-0.0679233,VALID,18.2208,VALID,197,VALID,0.733705,
2001-02-06, 03:23:00,VALID,914.362,VALID,0,VALID,99.2271,VALID,-0.0169808,VALID,18.197,VALID,204,VALID,0.585248,
2001-02-06, 03:24:00,VALID,914.343,VALID,0,VALID,99.2297,VALID,0,VALID,18.2074,VALID,204,VALID,0.651816,
2001-02-06, 03:25:00,VALID,914.331,VALID,0,VALID,99.2284,VALID,-0.0169808,VALID,18.1979,VALID,205,VALID,0.449113,
2001-02-06, 03:26:00,VALID,914.319,VALID,0,VALID,99.2322,VALID,0,VALID,18.185,VALID,196,VALID,0.349365,
2001-02-06, 03:27:00,VALID,914.319,VALID,0,VALID,99.2449,VALID,-0.0339617,VALID,18.1883,VALID,220,VALID,0.626736,
2001-02-06, 03:28:00,VALID,914.313,VALID,0,VALID,99.2754,VALID,-0.0339617,VALID,18.1979,VALID,223,VALID,0.843533,
2001-02-06, 03:29:00,VALID,914.298,VALID,0,VALID,99.2869,VALID,-0.0169808,VALID,18.1975,VALID,220,VALID,0.912642,
2001-02-06, 03:30:00,VALID,914.294,VALID,0,VALID,99.3021,VALID,-0.0169808,VALID,18.2072,VALID,232,VALID,0.88528,
2001-02-06, 03:31:00,VALID,914.287,VALID,0,VALID,99.3021,VALID,-0.0169808,VALID,18.2171,VALID,234,VALID,0.904018,
2001-02-06, 03:32:00,VALID,914.294,VALID,0,VALID,99.2983,VALID,0.0169808,VALID,18.2102,VALID,234,VALID,0.848575,
2001-02-06, 03:33:00,VALID,914.288,VALID,0,VALID,99.2869,VALID,-0.0169808,VALID,18.1975,VALID,228,VALID,0.749578,
2001-02-06, 03:34:00,VALID,914.302,VALID,0,VALID,99.2793,VALID,0,VALID,18.1846,VALID,226,VALID,0.689611,
2001-02-06, 03:35:00,VALID,914.313,VALID,0,VALID,99.2818,VALID,0,VALID,18.1617,VALID,219,VALID,0.829102,
2001-02-06, 03:36:00,VALID,914.318,VALID,0,VALID,99.2894,VALID,0,VALID,18.152,VALID,218,VALID,0.923394,